Weather observations for the past three days for
Fortuna Rohnerville Airport
Imperial (Metric)
Date Time (pdt) Wind (mph) Vis. (mi.) Weather Sky Cond. Temperature (ºF) Relative Humidity Wind Chill (°F) Heat Index (°F) Pressure Precipitation (in)
Air Dwpt 6 hour altimeter (in) sea level (mb) 1 hr 3 hr 6 hr
Max. Min.
17 23:55 Calm 0.25 Overcast OVC002 53.6 53.6 100% 30.09 0.0
17 23:30 Calm 2.50 Overcast OVC002 53.6 53.6 100% 30.1 0.0
17 23:15 Calm 3.00 Overcast OVC002 53.6 53.6 100% 30.1 0.0
17 22:55 Calm 6.00 Overcast OVC002 53.6 53.6 100% 30.1 0.0
17 22:35 Calm 10.00 Mostly Cloudy BKN002 53.6 53.6 100% 30.1 0.0
17 22:15 NW 6 10.00 Fair CLR 53.6 53.6 100% 30.1 0.0
17 21:50 NW 5 10.00 Fair CLR 53.6 53.6 100% 30.09 0.0
17 21:35 NW 5 10.00 Fair CLR 53.6 53.6 100% 30.09 0.0
17 21:15 W 6 10.00 Fair CLR 55.4 55.4 100% 30.09 0.0
17 20:55 W 7 10.00 Fair CLR 55.4 55.4 100% 30.09 0.0
17 20:35 W 7 10.00 Fair CLR 55.4 55.4 100% 30.09 0.0
17 20:15 NW 10 10.00 Fair CLR 57.2 57.2 100% 30.09 0.0
17 19:55 W 13 10.00 Fair CLR 59 59 100% 30.08 0.0
17 19:35 NW 15 10.00 Fair CLR 59 59 100% 30.08 0.0
17 19:15 NW 14 10.00 Fair CLR 60.8 59 94% 30.07 0.0
17 18:55 W 13 G 17 10.00 Fair CLR 62.6 57.2 83% 30.07 0.0
17 18:35 W 14 10.00 Fair CLR 62.6 57.2 83% 30.07 0.0
17 18:10 W 13 G 18 10.00 Fair CLR 64.4 57.2 78% 30.08 0.0
17 17:55 W 13 G 18 10.00 Fair CLR 64.4 59 83% 30.08 0.0
17 17:35 W 14 10.00 Fair CLR 64.4 57.2 78% 30.09 0.0
17 17:10 W 14 G 18 10.00 Fair CLR 66.2 59 78% 30.09 0.0
17 16:55 W 14 10.00 Fair CLR 66.2 59 78% 30.09 0.0
17 16:35 NW 15 G 20 10.00 Fair CLR 66.2 59 78% 30.09 0.0
17 16:15 NW 13 G 21 10.00 Fair CLR 66.2 59 78% 30.1 0.0
17 15:55 NW 16 10.00 Fair CLR 66.2 59 78% 30.1 0.0
17 15:30 NW 17 10.00 Fair CLR 66.2 59 78% 30.1 0.0
17 15:15 NW 17 10.00 Fair CLR 68 59 73% 30.1 0.0
17 14:55 NW 15 10.00 Fair CLR 68 57.2 69% 30.11 0.0
17 14:35 W 12 10.00 Fair CLR 68 59 73% 30.1 0.0
17 14:15 NW 14 10.00 Fair CLR 68 59 73% 30.11 0.0
17 13:55 NW 10 G 17 10.00 Fair CLR 68 59 73% 30.11 0.0
17 13:35 NW 12 10.00 Fair CLR 68 59 73% 30.11 0.0
17 13:15 NW 10 10.00 Fair CLR 66.2 57.2 73% 30.11 0.0
17 12:55 NW 12 10.00 Fair CLR 66.2 57.2 73% 30.11 0.0
17 12:35 NW 12 10.00 Fair CLR 66.2 57.2 73% 30.11 0.0
17 12:15 NW 10 10.00 Fair CLR 64.4 57.2 78% 30.1 0.0
17 11:55 NW 9 10.00 Fair CLR 64.4 57.2 78% 30.1 0.0
17 11:35 NW 5 10.00 Fair CLR 62.6 57.2 83% 30.1 0.0
17 11:15 NW 6 10.00 A Few Clouds FEW014 62.6 55.4 77% 30.1 0.0
17 10:50 N 7 10.00 Mostly Cloudy BKN012 60.8 55.4 83% 30.09 0.0
17 10:35 Calm 10.00 Overcast OVC012 59 55.4 88% 30.09 0.0
17 10:15 Calm 10.00 Overcast OVC012 57.2 55.4 94% 30.09 0.0
17 09:55 Calm 10.00 Overcast OVC010 55.4 55.4 100% 30.09 0.0
17 09:35 Calm 10.00 Overcast OVC008 55.4 55.4 100% 30.09 0.0
17 09:10 Calm 10.00 Overcast OVC008 55.4 55.4 100% 30.09 0.0
17 08:55 Calm 10.00 Overcast OVC008 55.4 55.4 100% 30.08 0.0
17 08:35 Calm 10.00 Overcast OVC008 53.6 53.6 100% 30.08 0.0
17 08:15 Calm 10.00 Overcast OVC008 53.6 53.6 100% 30.08 0.0
17 07:55 Calm 10.00 Overcast OVC008 53.6 53.6 100% 30.08 0.0
17 07:35 Calm 10.00 Overcast OVC008 53.6 53.6 100% 30.07 0.0
17 07:15 Calm 10.00 Overcast OVC008 53.6 53.6 100% 30.07 0.0
17 06:55 Calm 10.00 Overcast OVC008 53.6 53.6 100% 30.06 0.0
17 06:35 Calm 10.00 Overcast OVC008 53.6 53.6 100% 30.05 0.0
17 06:15 Calm 10.00 Overcast OVC008 53.6 53.6 100% 30.05 0.0
17 05:55 Calm 10.00 Overcast OVC010 53.6 53.6 100% 30.05 0.0
17 05:35 Calm 10.00 Overcast OVC010 53.6 53.6 100% 30.04 0.0
17 05:15 Calm 10.00 Overcast OVC010 53.6 53.6 100% 30.04 0.0
17 04:55 Calm 10.00 Overcast OVC010 53.6 53.6 100% 30.03 0.0
17 04:30 Calm 10.00 Overcast OVC012 53.6 53.6 100% 30.03 0.0
17 04:15 Calm 10.00 Overcast OVC012 53.6 53.6 100% 30.03 0.0
17 03:55 Calm 10.00 Overcast OVC012 53.6 53.6 100% 30.03 0.0
17 03:35 Calm 10.00 Overcast OVC012 53.6 53.6 100% 30.03 0.0
17 03:15 Calm 10.00 Overcast OVC012 53.6 53.6 100% 30.03 0.0
17 02:50 Calm 10.00 Overcast OVC012 53.6 53.6 100% 30.03 0.0
17 02:35 Calm 10.00 Overcast OVC012 53.6 53.6 100% 30.03 0.0
17 02:15 Calm 10.00 Overcast OVC012 53.6 53.6 100% 30.03 0.0
17 01:55 Calm 10.00 Overcast OVC012 53.6 53.6 100% 30.03 0.0
17 01:35 Calm 10.00 Overcast OVC012 53.6 53.6 100% 30.04 0.0
17 01:15 Calm 10.00 Overcast OVC012 53.6 53.6 100% 30.04 0.0
17 00:55 Calm 10.00 Overcast OVC012 53.6 53.6 100% 30.04 0.0
17 00:35 Calm 10.00 Overcast OVC014 53.6 53.6 100% 30.04 0.0
17 00:15 Calm 10.00 Overcast OVC014 53.6 53.6 100% 30.04 0.0
16 23:55 Calm 10.00 Overcast OVC016 53.6 53.6 100% 30.03 0.0
16 23:35 Calm 10.00 Overcast OVC016 53.6 53.6 100% 30.03 0.0
16 23:10 Calm 10.00 Overcast OVC018 53.6 53.6 100% 30.04 0.0
16 22:55 W 3 10.00 Overcast OVC018 53.6 53.6 100% 30.04 0.0
16 22:35 W 6 10.00 Partly Cloudy SCT020 50 50 100% 48 30.03 0.0
16 22:10 W 6 10.00 Fair CLR 51.8 51.8 100% 30.03 0.0
16 21:55 W 7 10.00 Fair CLR 51.8 51.8 100% 30.03 0.0
16 21:35 W 8 10.00 Fair CLR 53.6 53.6 100% 30.03 0.0
16 21:15 W 7 10.00 Fair CLR 53.6 53.6 100% 30.02 0.0
16 20:55 NW 7 10.00 Fair CLR 55.4 53.6 94% 30.02 0.0
16 20:30 NW 10 10.00 Fair CLR 55.4 53.6 94% 30.01 0.0
16 20:15 W 10 10.00 Fair CLR 57.2 53.6 88% 30.01 0.0
16 19:55 W 10 10.00 Fair CLR 59 53.6 82% 30.01 0.0
16 19:35 W 8 10.00 Fair CLR 60.8 53.6 77% 30.01 0.0
16 19:15 NW 9 10.00 Fair CLR 60.8 53.6 77% 30.01 0.0
16 18:55 NW 9 10.00 Fair CLR 62.6 55.4 77% 30.01 0.0
16 18:35 NW 10 10.00 Fair CLR 64.4 55.4 73% 30 0.0
16 18:15 NW 10 10.00 A Few Clouds FEW110 64.4 55.4 73% 30 0.0
16 17:55 NW 8 10.00 A Few Clouds FEW095 64.4 55.4 73% 30 0.0
16 17:35 NW 7 10.00 Fair CLR 64.4 55.4 73% 30.01 0.0
16 17:15 NW 8 10.00 Fair CLR 64.4 55.4 73% 30.01 0.0
16 16:55 NW 6 10.00 A Few Clouds FEW120 62.6 55.4 77% 30.01 0.0
16 16:35 NW 12 10.00 Fair CLR 62.6 55.4 77% 30.01 0.0
16 16:15 W 10 10.00 A Few Clouds FEW019 62.6 55.4 77% 30.01 0.0
16 15:50 NW 12 10.00 Partly Cloudy SCT019 62.6 55.4 77% 30.01 0.0
16 15:35 NW 9 10.00 Partly Cloudy SCT019 62.6 55.4 77% 30.01 0.0
16 15:15 NW 9 10.00 Partly Cloudy SCT017 62.6 55.4 77% 30.01 0.0
16 14:55 NW 9 10.00 Mostly Cloudy BKN017 62.6 55.4 77% 30.02 0.0
16 14:35 N 9 10.00 Mostly Cloudy BKN017 62.6 55.4 77% 30.02 0.0
16 14:10 NW 8 10.00 Overcast OVC015 62.6 55.4 77% 30.02 0.0
16 13:55 NW 9 10.00 Overcast OVC015 62.6 57.2 83% 30.02 0.0
16 13:35 NW 6 10.00 Overcast OVC015 62.6 55.4 77% 30.03 0.0
16 13:15 N 7 10.00 Overcast OVC013 60.8 55.4 83% 30.03 0.0
16 12:55 NW 3 10.00 Overcast OVC013 59 55.4 88% 30.03 0.0
16 12:35 NW 5 10.00 Overcast OVC013 57.2 57.2 100% 30.04 0.0
16 12:15 N 6 10.00 Overcast OVC013 57.2 55.4 94% 30.03 0.0
16 11:55 W 6 10.00 Overcast OVC013 57.2 55.4 94% 30.03 0.0
16 11:35 NW 5 10.00 Overcast OVC011 57.2 57.2 100% 30.03 0.0
16 11:15 NW 6 10.00 Overcast OVC008 55.4 55.4 100% 30.03 0.0
16 10:55 NW 5 10.00 Overcast OVC008 55.4 55.4 100% 30.03 0.0
16 10:35 Calm 10.00 Overcast BKN008 OVC012 53.6 53.6 100% 30.03 0.0
16 10:15 Calm 10.00 Overcast OVC006 53.6 53.6 100% 30.02 0.0
16 09:55 Calm 10.00 Overcast OVC006 53.6 53.6 100% 30.02 0.0
16 09:30 Calm 9.00 Mostly Cloudy BKN006 53.6 53.6 100% 30.02 0.0
16 09:15 Calm 10.00 Mostly Cloudy BKN006 51.8 51.8 100% 30.02 0.0
16 08:55 Calm 9.00 Mostly Cloudy BKN006 51.8 51.8 100% 30.02 0.0
16 08:35 Calm 2.50 A Few Clouds FEW003 50 50 100% 30.02 0.0
16 08:15 Calm 1.25 Overcast OVC003 50 50 100% 30.02 0.0
16 07:50 NW 3 1.50 Overcast OVC002 50 50 100% 30.01 0.0
16 07:35 NW 3 0.50 Overcast OVC002 50 50 100% 30.01 0.0
16 07:15 NW 3 0.50 Mostly Cloudy BKN002 50 50 100% 30 0.0
16 06:55 Calm 0.25 Overcast OVC002 50 50 100% 30 0.0
16 06:35 Calm 0.25 Overcast OVC001 50 50 100% 30 0.0
16 06:10 Calm 0.25 Overcast OVC002 50 50 100% 30 0.0
16 05:55 Calm 0.50 Overcast OVC002 50 50 100% 30 0.0
16 05:35 Calm 0.50 Overcast OVC001 50 50 100% 30 0.0
16 05:15 Calm 1.00 Overcast OVC002 50 50 100% 30 0.0
16 04:55 Calm 1.50 Overcast OVC002 50 50 100% 30 0.0
16 04:35 Calm 2.00 Overcast OVC002 50 50 100% 29.99 0.0
16 04:15 Calm 2.50 Overcast OVC002 50 50 100% 29.99 0.0
16 03:55 Calm 4.00 Overcast OVC003 50 50 100% 29.99 0.0
16 03:10 Calm 4.00 Overcast OVC002 50 50 100% 30 0.0
16 02:55 NW 3 4.00 Overcast OVC002 50 50 100% 30 0.0
16 02:35 Calm 5.00 Overcast OVC002 50 50 100% 29.99 0.0
16 02:15 NW 5 8.00 Overcast OVC003 51.8 51.8 100% 30 0.0
16 01:55 Calm 8.00 Overcast OVC003 50 50 100% 30 0.0
16 01:30 Calm 8.00 Overcast OVC003 51.8 51.8 100% 30 0.0
16 01:15 Calm 9.00 Overcast OVC003 51.8 51.8 100% 30 0.0
16 00:55 Calm 8.00 Overcast OVC003 51.8 51.8 100% 30.01 0.0
16 00:35 Calm 9.00 Overcast OVC004 51.8 51.8 100% 30.01 0.0
16 00:15 Calm 9.00 Overcast OVC004 51.8 50 94% 30.01 0.0
15 23:55 Calm 9.00 Overcast OVC005 50 50 100% 30.01 0.0
15 23:35 Calm 8.00 Overcast OVC006 50 50 100% 30.01 0.0
15 23:15 W 6 9.00 Mostly Cloudy BKN008 50 50 100% 48 30.01 0.0
15 22:55 W 6 9.00 Fair CLR 50 50 100% 48 30.02 0.0
15 22:35 W 7 10.00 Fair CLR 50 50 100% 48 30.02 0.0
15 22:15 W 6 10.00 Fair CLR 50 50 100% 48 30.02 0.0
15 21:50 W 7 10.00 Fair CLR 50 50 100% 48 30.01 0.0
15 21:35 NW 8 10.00 Fair CLR 51.8 50 94% 30.01 0.0
15 21:15 W 8 10.00 Fair CLR 51.8 51.8 100% 30.01 0.0
15 20:50 NW 9 10.00 Fair CLR 53.6 53.6 100% 30 0.0
15 20:35 NW 9 10.00 Fair CLR 53.6 53.6 100% 30 0.0
15 20:15 NW 9 10.00 Fair CLR 55.4 55.4 100% 29.99 0.0
15 19:55 NW 9 10.00 Fair CLR 57.2 55.4 94% 30 0.0
15 19:35 NW 10 10.00 Fair CLR 57.2 55.4 94% 30 0.0
15 19:10 NW 12 10.00 Fair CLR 59 55.4 88% 30 0.0
15 18:55 W 13 10.00 Fair CLR 59 55.4 88% 30.01 0.0
15 18:35 NW 13 10.00 Fair CLR 60.8 55.4 83% 30.01 0.0
15 18:15 NW 10 10.00 Fair CLR 62.6 55.4 77% 30.01 0.0
15 17:55 NW 12 10.00 A Few Clouds FEW120 62.6 55.4 77% 30.01 0.0
15 17:35 W 13 10.00 A Few Clouds FEW095 62.6 55.4 77% 30.01 0.0
15 17:15 W 14 10.00 Fair CLR 64.4 55.4 73% 30.01 0.0
15 16:55 NW 13 10.00 Fair CLR 66.2 55.4 68% 30.02 0.0
15 16:35 NW 14 10.00 Fair CLR 66.2 55.4 68% 30.01 0.0
15 16:15 NW 14 10.00 Fair CLR 66.2 55.4 68% 30.01 0.0
15 15:55 NW 13 10.00 Fair CLR 68 55.4 64% 30.02 0.0
15 15:35 NW 16 10.00 Fair CLR 66.2 55.4 68% 30.02 0.0
15 15:15 NW 13 G 21 10.00 Fair CLR 68 55.4 64% 30.02 0.0
15 14:55 NW 15 G 20 10.00 Fair CLR 68 57.2 69% 30.02 0.0
15 14:30 NW 14 10.00 Fair CLR 68 57.2 69% 30.02 0.0
15 14:15 NW 14 10.00 Fair CLR 68 55.4 64% 30.03 0.0
15 13:55 NW 14 G 18 10.00 Fair CLR 68 57.2 69% 30.03 0.0
15 13:35 NW 13 G 18 10.00 Fair CLR 66.2 57.2 73% 30.04 0.0
15 13:15 W 12 10.00 Fair CLR 66.2 57.2 73% 30.04 0.0
15 12:50 NW 12 10.00 A Few Clouds FEW110 66.2 57.2 73% 30.04 0.0
15 12:35 NW 9 10.00 A Few Clouds FEW110 66.2 57.2 73% 30.04 0.0
15 12:15 NW 10 10.00 Fair CLR 64.4 57.2 78% 30.05 0.0
15 11:55 NW 10 10.00 Fair CLR 64.4 57.2 78% 30.05 0.0
15 11:35 NW 10 10.00 Fair CLR 62.6 57.2 83% 30.05 0.0
15 11:15 W 10 10.00 Fair CLR 59 57.2 94% 30.06 0.0
15 10:55 NW 8 10.00 Fair CLR 59 57.2 94% 30.06 0.0
15 10:35 NW 9 10.00 Fair CLR 57.2 57.2 100% 30.06 0.0
15 10:15 NW 6 10.00 A Few Clouds FEW006 55.4 55.4 100% 30.07 0.0
15 09:55 Calm 10.00 Mostly Cloudy BKN006 53.6 53.6 100% 30.07 0.0
15 09:35 Calm 10.00 Mostly Cloudy BKN005 53.6 53.6 100% 30.07 0.0
15 09:15 Calm 10.00 Overcast OVC004 50 50 100% 30.07 0.0
15 08:55 Calm 10.00 Overcast OVC004 50 50 100% 30.07 0.0
15 08:35 Calm 10.00 Overcast OVC003 50 50 100% 30.07 0.0
15 08:10 Calm 5.00 Overcast OVC002 48.2 48.2 100% 30.07 0.0
15 03:35 Calm 1.25 Fair CLR 44.6 44.6 100% 30.02 0.0
15 03:15 Calm 10.00 Fair CLR 46.4 46.4 100% 30.03 0.0
15 02:55 Calm 10.00 Fair CLR 46.4 46.4 100% 30.03 0.0
15 02:35 Calm 5.00 Fair CLR 46.4 46.4 100% 30.03 0.0
15 02:15 Calm 0.75 Sky Obscured VV005 46.4 46.4 100% 30.03 0.0
15 01:50 Calm 3.00 Fair CLR 46.4 46.4 100% 30.04 0.0
15 01:35 Calm 0.50 Mostly Cloudy BKN001 46.4 46.4 100% 30.04 0.0
15 01:05 Calm 0.25 Overcast OVC002 46.4 46.4 100% 30.05 0.0
15 00:55 Calm 0.25 Overcast OVC002 46.4 46.4 100% 30.04 0.0
Date Time (pdt) Wind (mph) Vis. (mi.) Weather Sky Cond. Air Dwpt Max. Min. Relative Humidity Wind Chill (°F) Heat Index (°F) altimeter (in) sea level (mb) 1 hr 3 hr 6 hr
6 hour
Temperature (ºF) Pressure Precipitation (in)